Temp
69 68 71 74 75 70 74 71 69 70 68 68 65 65 65 65 66 67 68 67 67 66 65 66 63 64 64 64 64 63 61 61 62 61 60 61 61 62 62 63 63 64 64
64 66 65 64 63 70 73 74 70 69 69 70 71 70 69 68 68 67 66 67 67 66 66 66 64 65 65 63 63 63 61 62 62 60 59 59 60 59 60 60 61 62 62
65 67 67 65 61 62 68 74 71 70 70 71 70 64 65 63 64 65 66 66 67 67 67 67 67 66 67 65 64 64 63 62 61 63 62 56 57 57 57 58 58 59 59
63 65 66 65 64 64 65 72 72 70 70 70 69 68 69 66 68 68 68 67 67 67 67 67 67 66 66 67 66 65 65 64 62 60 61 61 60 58 57 57 57 57 57
62 64 65 66 66 64 63 67 69 69 70 70 70 68 68 69 64 65 65 66 66 68 68 67 66 66 66 67 67 65 65 65 65 63 59 58 57 57 57 57 57 56 57
64 63 64 62 64 58 59 62 66 68 68 69 69 68 68 66 64 64 65 65 65 66 67 67 67 67 67 67 67 66 65 65 65 64 63 60 59 58 57 57 57 57 57
64 61 62 61 61 59 55 57 65 67 68 68 69 68 68 68 66 65 65 64 64 64 66 67 67 66 67 67 67 65 65 65 64 65 63 63 61 60 59 58 57 56 55
62 61 61 61 61 60 56 57 63 66 67 68 68 68 69 68 67 66 66 66 66 66 66 67 68 67 67 67 66 66 65 65 64 64 63 63 63 62 60 60 56 52 52
62 62 63 60 62 59 57 58 62 64 66 67 68 67 67 66 66 65 66 66 66 64 64 66 66 67 67 67 67 66 65 64 64 64 64 63 63 62 61 59 58 57 51
60 61 61 62 59 58 57 58 61 63 64 65 65 64 65 66 64 63 64 63 64 63 63 64 66 66 65 65 65 65 65 63 63 63 62 62 60 60 59 58 58 57 55
61 60 60 61 59 57 57 57 59 60 60 60 59 59 60 61 61 61 62 62 61 63 64 65 64 64 64 64 64 63 61 62 60 60 61 58 59 58 58 58 56 55 54
61 59 57 58 58 57 57 59 58 60 60 60 60 60 60 60 60 60 60 60 61 63 64 64 64 63 63 63 63 61 60 60 59 57 57 56 56 55 55 55 53 53 53
59 59 57 57 57 58 58 58 59 60 63 62 61 61 62 62 62 62 61 62 62 62 62 63 62 62 61 60 60 60 59 58 57 57 55 54 54 53 52 51 51 52 50
60 59 57 57 58 58 58 58 58 58 61 62 62 62 62 62 62 62 62 61 62 61 61 61 61 60 58 57 56 55 55 54 53 53 53 52 51 50 50 49 50 49 49
59 59 58 57 58 58 58 58 58 58 60 60 61 61 62 62 62 61 61 60 60 60 59 57 56 55 54 54 54 53 52 51 50 49 49 48 47 46 45 47 46 46 46
61 60 62 59 58 58 59 59 58 59 62 59 59 59 59 60 60 59 59 58 57 56 55 54 53 51 49 43 45 49 50 49 48 46 46 45 45 43 41 39 39 42 44
58 58 61 61 60 60 61 59 59 58 59 61 59 58 59 58 58 57 56 55 54 53 52 51 51 48 46 42 43 43 48 47 45 44 43 41 40 39 39 39 39 39 38
60 61 59 59 59 59 59 61 59 59 59 59 59 60 58 57 56 55 54 52 52 51 50 49 47 45 42 40 40 41 43 41 39 39 39 38 37 38 38 38 37 36 36
59 59 58 58 60 59 60 59 57 59 59 59 59 58 58 55 54 53 52 51 50 49 48 47 45 43 39 39 39 40 39 36 35 34 34 35 35 37 39 35 34 34 34
54 54 56 56 55 60 57 57 56 57 58 58 59 58 57 55 53 52 50 50 50 47 46 44 43 40 39 38 38 38 36 34 34 33 34 35 34 36 36 34 33 33 33
55 57 57 54 59 58 56 56 56 56 59 59 59 57 55 55 52 49 49 47 46 45 43 41 41 40 39 37 38 38 37 35 34 33 33 33 36 36 37 36 33 33 33
55 57 54 55 56 54 56 56 55 58 55 56 55 53 52 48 49 48 46 46 44 41 39 38 37 37 36 37 38 38 37 36 34 33 33 33 36 37 37 34 35 34 34
55 56 56 57 58 52 56 55 57 52 53 53 50 48 48 48 48 47 45 44 43 41 39 38 36 35 34 35 36 37 36 35 34 33 34 35 36 36 33 35 34 32 32
51 53 52 54 53 49 52 56 49 50 50 48 47 46 45 45 46 46 45 43 41 40 38 37 36 35 35 35 34 34 35 32 33 33 34 33 32 32 30 30 32 31 30
52 52 53 53 54 46 47 47 48 50 47 46 45 44 43 43 42 43 42 40 40 40 38 37 37 36 34 34 36 35 34 34 32 32 30 30 30 29 29 29 28 29 30
52 49 49 50 48 43 45 47 49 49 46 44 43 42 42 41 41 39 37 36 37 37 37 36 37 34 35 35 36 36 35 35 31 30 30 30 29 28 29 30 30 31 31
MSLP
1006.02 1006.17 1005.98 1005.94 1006.64 1007.17 1007.73 1008.11 1008.82 1009.28 1010.32 1011.05 1011.73 1012.32 1012.23 1012.81 1013.17 1013.22 1013.50 1013.93 1014.44 1015.08 1015.67 1016.19 1016.74 1017.12 1017.56 1017.85 1018.36 1018.82 1019.24 1019.64 1019.66 1020.14 1020.16 1020.06 1019.97 1019.97 1019.95 1020.08 1020.17 1020.23 1020.19
1005.80 1005.44 1005.24 1005.43 1005.83 1005.98 1006.38 1007.13 1007.56 1008.34 1008.83 1009.54 1009.90 1010.76 1011.38 1011.94 1012.32 1012.76 1012.95 1013.20 1013.65 1014.20 1014.83 1015.38 1015.92 1016.36 1016.97 1017.40 1017.78 1018.19 1018.67 1018.77 1019.16 1019.52 1020.10 1020.05 1019.78 1019.53 1019.51 1019.66 1019.84 1019.89 1020.02
1005.46 1004.66 1004.78 1004.53 1005.15 1005.52 1005.60 1005.87 1006.17 1006.67 1007.41 1008.13 1009.42 1010.33 1010.89 1011.50 1011.96 1011.93 1012.09 1012.18 1012.64 1013.25 1013.78 1014.30 1014.81 1015.48 1015.98 1016.38 1016.79 1017.19 1017.59 1018.10 1018.51 1018.48 1018.71 1019.54 1019.36 1019.29 1019.29 1019.35 1019.36 1019.53 1019.73
1004.39 1004.03 1004.16 1004.48 1004.62 1004.29 1004.65 1005.05 1005.58 1005.88 1006.44 1007.42 1008.26 1008.83 1008.87 1009.77 1009.65 1010.16 1010.98 1011.53 1011.87 1012.38 1012.93 1013.38 1013.89 1014.53 1014.99 1015.39 1015.70 1016.18 1016.59 1017.12 1017.55 1018.26 1018.11 1018.18 1018.37 1018.84 1019.28 1019.16 1019.16 1019.39 1019.44
1003.41 1003.25 1003.11 1003.14 1003.59 1003.88 1004.11 1004.35 1004.85 1005.51 1005.91 1006.24 1006.82 1007.73 1008.35 1008.46 1008.98 1009.70 1010.37 1010.93 1011.40 1011.68 1012.10 1012.54 1013.08 1013.63 1014.17 1014.43 1014.81 1015.36 1015.72 1015.97 1016.39 1016.68 1017.41 1017.96 1018.15 1018.33 1018.58 1018.61 1018.94 1019.15 1019.11
1002.56 1002.44 1002.59 1002.81 1002.92 1003.54 1003.76 1003.97 1004.21 1004.31 1004.76 1005.53 1005.98 1006.55 1007.19 1007.95 1008.49 1009.12 1009.67 1010.16 1010.71 1011.14 1011.49 1011.83 1012.36 1012.74 1013.24 1013.65 1013.92 1014.33 1014.77 1015.00 1015.41 1015.66 1016.09 1016.39 1016.95 1017.47 1017.86 1018.22 1018.27 1018.56 1018.95
1001.97 1002.26 1002.44 1002.94 1003.07 1003.13 1003.41 1003.64 1003.66 1003.75 1004.16 1004.61 1005.28 1005.74 1006.29 1007.11 1007.50 1008.10 1008.74 1009.40 1010.05 1010.47 1010.63 1011.06 1011.53 1011.89 1012.25 1012.78 1013.26 1013.69 1014.06 1014.32 1014.63 1014.78 1015.11 1015.50 1015.95 1016.42 1016.73 1017.31 1017.94 1018.32 1018.91
1001.75 1001.78 1002.06 1002.54 1002.48 1002.38 1002.68 1002.87 1002.81 1003.03 1003.38 1003.84 1004.30 1004.91 1005.59 1006.23 1006.77 1007.30 1007.85 1008.43 1008.90 1009.23 1009.68 1010.22 1010.70 1011.04 1011.48 1011.90 1012.46 1012.80 1013.19 1013.53 1013.87 1014.04 1014.39 1014.67 1015.12 1015.63 1015.83 1016.28 1017.24 1018.06 1018.55
1001.49 1001.40 1001.54 1001.48 1001.28 1001.38 1001.47 1001.75 1002.07 1002.51 1002.80 1003.29 1003.86 1004.44 1004.97 1005.65 1006.16 1006.67 1007.15 1007.65 1008.10 1008.56 1009.02 1009.51 1009.98 1010.39 1010.81 1011.22 1011.67 1012.03 1012.33 1012.63 1012.95 1013.21 1013.62 1014.01 1014.50 1014.92 1015.37 1015.63 1016.19 1016.90 1016.97
1001.45 1001.42 1001.13 1000.50 1000.37 1000.60 1000.79 1001.06 1001.31 1001.74 1002.02 1002.72 1003.26 1003.84 1004.39 1005.11 1005.77 1006.33 1006.84 1007.25 1007.67 1008.15 1008.63 1009.16 1009.53 1009.97 1010.31 1010.70 1011.09 1011.41 1011.61 1011.88 1012.26 1012.54 1012.99 1013.48 1014.03 1014.43 1014.79 1015.28 1015.70 1016.42 1016.78
1000.73 1000.89 1000.42 1000.14 1000.14 1000.29 1000.32 1000.35 1000.92 1001.31 1001.91 1002.45 1002.94 1003.57 1004.36 1005.01 1005.54 1005.97 1006.39 1006.87 1007.39 1007.83 1008.29 1008.67 1009.11 1009.43 1009.88 1010.13 1010.52 1010.87 1011.25 1011.60 1012.04 1012.36 1012.73 1013.08 1013.51 1014.24 1014.79 1015.27 1015.90 1016.39 1016.50
1000.52 1000.44 1000.36 1000.68 1000.32 1000.14 1000.22 1000.07 1000.49 1000.83 1001.46 1001.95 1002.41 1003.29 1004.00 1004.49 1005.03 1005.59 1006.06 1006.60 1007.16 1007.48 1007.83 1008.24 1008.58 1008.87 1009.37 1009.76 1010.12 1010.48 1010.73 1011.10 1011.67 1012.11 1012.56 1013.00 1013.43 1014.14 1015.00 1015.45 1015.97 1016.80 1017.12
1000.22 1000.23 1000.52 1000.45 1000.39 1000.18 1000.08 1000.20 1000.52 1000.68 1001.31 1001.84 1002.42 1003.08 1003.54 1004.12 1004.63 1005.21 1005.97 1006.42 1006.85 1007.48 1007.65 1007.91 1008.28 1008.71 1009.10 1009.56 1009.85 1010.14 1010.59 1010.97 1011.28 1011.85 1012.55 1013.13 1013.73 1014.82 1015.30 1016.03 1015.94 1017.95 1017.49
1000.10 1000.04 1000.14 1000.01 999.96 999.93 1000.18 1000.20 1000.69 1000.95 1001.30 1001.74 1002.18 1002.75 1003.18 1003.83 1004.44 1004.96 1005.51 1005.95 1006.47 1007.06 1007.42 1007.79 1008.16 1008.52 1009.02 1009.48 1009.92 1010.35 1010.91 1011.42 1011.97 1012.35 1013.01 1013.66 1014.42 1015.25 1016.09 1016.28 1017.04 1017.41 1017.68
999.71 999.81 999.58 999.32 999.64 999.61 999.60 1000.32 1000.37 1000.81 1001.17 1001.74 1002.22 1002.57 1003.16 1003.63 1004.34 1004.79 1005.11 1005.59 1006.28 1006.78 1007.34 1007.91 1008.49 1008.83 1009.13 1009.59 1010.08 1010.64 1011.27 1012.10 1012.53 1013.26 1014.41 1014.42 1014.81 1015.56 1016.09 1016.83 1017.33 1017.56 1017.96
999.62 999.57 999.14 998.84 998.88 999.30 999.65 999.87 1000.15 1000.58 1001.09 1001.72 1001.96 1002.22 1002.71 1003.29 1004.08 1004.56 1005.16 1005.70 1006.16 1006.68 1007.44 1008.13 1008.73 1009.35 1009.79 1009.84 1010.14 1010.66 1011.68 1012.32 1013.22 1013.84 1014.76 1015.22 1015.41 1016.03 1016.56 1016.87 1017.12 1017.48 1017.90
999.39 999.19 999.12 998.90 998.79 998.57 998.58 998.87 999.91 1000.74 1001.22 1001.40 1002.04 1002.55 1002.68 1002.98 1003.80 1004.29 1005.16 1005.93 1006.26 1006.39 1007.45 1008.33 1009.10 1009.95 1010.56 1010.46 1010.84 1011.25 1011.68 1012.73 1013.41 1014.23 1015.04 1015.54 1016.13 1016.36 1016.75 1017.18 1017.52 1017.76 1018.00
999.26 998.89 998.80 998.62 998.13 997.97 998.29 998.08 998.56 999.12 1000.18 1000.97 1001.47 1002.11 1002.78 1003.21 1003.77 1004.17 1004.96 1005.78 1006.33 1006.61 1007.28 1008.44 1009.38 1010.14 1011.16 1011.38 1011.65 1012.28 1012.80 1013.72 1014.17 1014.80 1015.36 1015.76 1016.49 1016.78 1016.94 1017.16 1017.56 1017.71 1018.09
998.40 998.19 997.91 997.58 997.31 997.28 997.22 997.88 998.57 998.55 999.24 999.87 1000.43 1001.22 1002.06 1002.93 1003.56 1004.12 1004.86 1005.60 1006.30 1006.87 1007.56 1008.63 1009.55 1010.54 1011.64 1011.79 1012.08 1012.57 1013.57 1014.80 1015.00 1015.20 1015.65 1015.91 1016.36 1016.68 1016.93 1017.07 1017.43 1017.76 1017.91
998.12 997.98 997.70 997.38 996.95 996.16 996.73 997.35 997.44 998.11 998.05 998.49 998.96 999.96 1001.10 1002.20 1002.83 1003.81 1004.62 1005.27 1006.29 1006.94 1007.95 1009.05 1009.94 1010.83 1011.75 1012.18 1012.44 1012.88 1013.83 1014.70 1015.17 1015.46 1015.72 1016.04 1016.33 1016.52 1017.06 1017.30 1017.53 1017.81 1017.90
997.58 997.33 997.15 997.03 996.42 996.17 996.49 996.82 997.23 997.28 996.88 997.63 998.44 999.53 1000.59 1001.53 1002.68 1003.76 1004.73 1005.36 1006.42 1007.23 1008.36 1009.53 1010.65 1011.28 1012.00 1012.75 1012.85 1013.12 1013.75 1014.35 1014.85 1015.32 1015.83 1016.12 1016.31 1016.53 1016.87 1017.14 1017.46 1017.93 1018.04
996.78 996.60 996.67 996.15 995.89 996.04 996.20 996.10 996.38 995.44 996.90 997.86 998.72 999.44 1000.29 1001.38 1002.60 1003.77 1004.79 1005.76 1006.65 1007.56 1008.82 1010.04 1011.30 1012.08 1012.59 1012.92 1013.29 1013.51 1013.77 1014.29 1014.83 1015.52 1015.67 1015.97 1016.27 1016.50 1016.89 1017.27 1017.65 1018.03 1018.20
996.19 995.70 995.66 995.37 995.08 995.33 995.39 995.53 994.73 995.62 996.36 997.22 998.34 999.58 1000.53 1001.38 1002.23 1003.27 1004.54 1005.66 1006.84 1007.64 1009.05 1010.06 1011.21 1012.14 1012.66 1013.07 1013.44 1013.70 1014.03 1014.31 1014.67 1014.83 1015.05 1015.57 1016.11 1016.56 1016.71 1017.05 1017.45 1017.92 1018.12
995.38 995.22 995.12 994.84 994.68 994.69 994.68 994.35 994.90 995.24 996.19 997.23 998.49 999.29 1000.26 1001.45 1002.51 1003.40 1004.32 1005.24 1006.72 1007.88 1009.03 1010.08 1011.03 1012.13 1012.80 1013.09 1013.31 1013.77 1014.19 1014.37 1014.61 1015.02 1015.44 1015.86 1016.20 1016.50 1016.71 1017.07 1017.17 1017.22 1017.53
994.46 994.47 994.54 994.28 993.79 994.03 994.24 994.48 994.69 995.17 996.15 996.90 998.11 999.25 1000.48 1001.40 1002.65 1003.90 1005.16 1005.75 1006.82 1007.28 1008.29 1009.53 1010.49 1011.36 1012.38 1012.92 1013.29 1013.54 1014.01 1014.36 1014.84 1015.29 1015.79 1016.12 1016.40 1016.51 1016.69 1016.86 1016.80 1016.61 1016.67
993.94 994.08 994.02 993.91 993.46 993.96 994.24 994.63 994.64 995.08 996.07 997.03 997.89 999.27 1000.07 1001.64 1002.68 1003.97 1005.99 1006.81 1007.29 1008.27 1009.20 1009.79 1010.28 1011.17 1011.39 1012.18 1012.88 1013.37 1013.82 1014.28 1014.64 1015.28 1015.65 1015.80 1016.04 1016.25 1016.19 1016.01 1015.92 1015.90 1016.14
Wind_Speed
13 11 15 15 14 10 12 15 15 16 12 11 11 9 13 10 9 9 12 12 11 12 11 8 7 8 8 9 9 6 6 5 3 3 2 3 5 5 5 4 4 5 5
9 10 10 9 12 17 18 15 16 15 16 12 12 8 9 9 8 7 9 11 12 12 12 11 9 11 8 8 8 8 4 5 6 4 2 2 3 3 4 4 4 6 3
13 11 8 10 6 11 17 19 19 19 18 17 9 3 4 3 6 9 10 12 14 13 14 14 11 11 11 9 10 11 11 7 4 8 5 2 6 0 1 4 4 5 4
10 10 8 8 10 13 10 14 14 17 16 17 14 18 14 10 10 10 9 9 13 14 13 13 13 11 10 12 11 9 9 8 7 3 4 1 3 4 2 3 3 3 5
10 12 12 11 10 7 12 13 13 13 14 18 17 14 13 10 3 4 9 10 9 13 13 13 12 13 10 12 12 10 12 10 8 7 3 2 2 2 2 4 4 3 4
11 11 9 6 8 5 8 9 14 16 16 17 17 18 18 11 7 8 9 8 7 9 12 12 12 12 11 11 11 12 13 12 11 8 8 6 5 6 4 5 3 3 3
10 9 8 7 9 10 9 9 15 17 17 18 17 17 17 14 13 10 9 9 7 6 12 13 12 10 11 11 9 10 12 12 11 12 9 6 5 3 3 3 2 3 3
9 8 8 9 10 10 10 11 15 15 17 18 18 15 14 10 9 9 7 7 8 8 9 11 11 12 12 12 11 9 9 10 10 12 11 8 8 7 5 5 5 3 3
10 9 10 10 11 9 11 14 13 13 15 16 13 14 12 11 10 9 8 7 7 5 7 10 11 11 12 12 12 9 10 9 10 11 10 8 7 7 6 4 2 1 1
8 9 10 10 9 9 8 9 11 14 14 13 12 10 10 9 7 7 9 8 6 6 6 7 8 8 9 9 10 9 9 8 7 7 9 7 3 5 5 3 4 5 4
9 7 8 8 8 6 7 8 10 11 12 10 8 8 7 7 7 7 6 7 6 7 8 8 8 8 9 9 9 8 8 9 7 5 8 7 7 5 5 4 3 1 2
7 8 7 8 6 6 7 9 8 9 7 7 8 8 7 7 7 6 6 6 6 6 7 7 7 7 7 8 9 9 8 9 8 6 6 6 5 7 4 4 5 1 3
6 5 6 6 7 6 6 6 7 9 10 8 9 8 8 8 7 7 6 6 6 6 6 6 6 6 6 7 6 6 6 6 8 9 10 9 9 4 3 2 7 3 3
8 6 7 8 6 6 5 6 5 6 11 8 8 8 9 9 8 8 8 7 6 6 5 5 5 6 5 5 6 6 7 9 8 7 8 8 7 7 5 5 5 3 4
9 8 8 7 6 6 7 5 6 8 10 11 12 14 12 10 9 8 8 7 7 6 5 6 5 5 6 5 8 9 11 10 10 11 7 8 11 12 8 4 3 4 3
9 8 8 7 8 8 7 7 8 9 10 9 12 12 12 11 11 9 7 8 8 8 7 6 7 7 5 13 15 13 10 11 10 11 8 7 10 10 10 9 8 5 3
10 9 9 8 8 10 12 13 10 7 8 9 6 5 8 10 9 9 9 8 8 11 10 9 9 8 6 15 15 12 11 10 9 9 7 7 5 7 6 8 8 7 7
14 11 7 9 9 7 9 9 12 15 14 10 8 9 7 8 8 9 9 8 8 11 11 11 10 11 7 13 15 14 11 9 9 8 7 7 6 5 5 5 3 2 2
14 11 8 9 9 9 12 11 12 14 14 14 14 13 12 10 10 10 10 9 10 11 11 11 13 12 9 14 16 14 9 7 6 6 5 6 5 5 6 4 2 1 0
6 9 9 9 8 13 6 11 13 14 18 17 19 15 14 14 13 12 11 9 10 11 11 11 10 12 11 12 13 11 6 6 4 4 4 6 5 5 5 3 2 1 1
13 13 11 10 13 7 8 12 9 15 18 12 13 14 14 14 12 12 10 11 11 12 12 12 9 10 9 8 11 10 5 4 4 3 2 1 6 6 6 5 3 1 2
13 13 9 9 9 8 10 13 14 18 10 10 11 12 13 11 11 14 11 12 12 13 12 12 8 5 5 7 8 8 7 7 4 3 3 3 6 6 6 4 4 6 6
12 11 10 13 13 8 12 12 16 9 12 13 13 13 13 12 13 15 13 11 11 12 11 10 9 6 4 3 6 8 8 8 3 3 6 7 4 3 2 1 3 2 2
10 9 10 14 16 8 11 15 10 12 14 14 13 13 14 13 11 9 9 11 10 10 9 8 7 5 3 3 3 2 4 5 4 4 4 4 3 2 1 2 4 3 3
9 8 11 13 19 7 7 8 12 15 15 16 15 14 12 13 12 9 7 9 7 9 10 7 8 8 4 3 6 5 3 3 3 4 2 1 1 1 2 3 4 4 3
10 9 13 14 11 6 8 9 12 15 16 15 13 12 12 11 11 12 11 15 15 14 12 9 7 3 10 11 10 8 7 8 9 2 2 2 3 4 4 4 4 4 6
Wind_Direction
249 222 230 228 207 210 196 188 185 189 174 183 181 192 203 198 204 206 203 196 195 192 194 199 183 186 198 198 196 194 191 225 165 133 247 253 230 223 217 209 220 218 214
273 250 228 228 193 198 205 198 197 183 187 190 200 199 193 211 209 202 204 199 195 191 194 198 197 196 199 197 189 188 184 210 180 168 118 279 296 243 211 194 206 217 185
243 254 212 226 189 193 199 204 196 190 190 192 176 136 123 102 181 204 204 203 195 195 197 201 202 200 202 206 200 198 196 208 190 208 159 145 223 167 121 224 208 199 203
237 245 209 208 221 218 196 207 202 193 188 180 182 193 197 193 208 205 206 199 196 197 198 203 203 202 204 210 207 197 205 196 205 216 224 263 151 182 273 260 245 221 211
227 240 225 211 218 222 196 198 193 194 189 186 189 191 203 203 159 160 179 191 191 200 201 202 199 205 203 213 209 200 204 203 209 205 143 182 175 243 210 236 252 246 242
237 239 241 242 252 235 211 198 193 196 184 188 189 191 200 193 174 177 184 188 189 197 206 202 206 210 211 209 209 209 207 208 217 207 202 187 200 212 199 233 228 218 218
228 227 236 234 246 233 214 207 201 199 190 185 191 193 198 197 198 183 183 171 180 192 207 200 204 207 206 210 206 204 211 214 214 217 217 219 218 202 218 203 207 212 231
272 244 233 228 236 235 210 194 198 196 186 185 192 193 196 200 200 188 181 188 192 200 191 200 205 206 206 210 209 212 213 211 213 214 208 207 207 203 187 190 163 179 235
263 267 277 248 243 232 211 197 190 191 185 192 184 191 190 189 190 183 179 190 192 190 180 188 197 205 210 211 212 217 213 206 210 216 203 207 207 196 198 173 160 113 240
273 282 271 282 245 224 196 180 186 191 183 180 182 180 178 185 178 167 183 185 185 175 174 185 199 203 205 204 206 221 222 206 205 192 195 197 190 181 165 170 182 183 148
280 283 298 294 265 205 177 165 169 165 172 171 157 156 169 172 166 177 180 182 162 169 183 188 188 190 200 193 195 198 180 188 179 189 188 170 153 162 175 169 124 247 92
272 282 299 272 232 205 188 179 163 153 152 153 141 157 157 159 162 173 168 158 170 173 180 181 180 178 186 186 193 193 184 179 177 161 152 136 121 117 132 128 101 24 111
262 253 261 247 242 216 189 167 168 155 159 150 150 153 155 156 157 151 157 160 161 183 169 170 174 178 179 181 184 186 183 181 168 149 138 122 116 106 91 116 90 185 107
262 248 233 218 213 191 190 161 164 157 169 160 165 174 175 174 172 167 169 165 163 168 168 176 178 173 160 149 139 126 119 111 90 76 94 97 99 114 121 94 119 114 105
275 244 243 223 209 197 163 198 180 177 174 180 186 192 187 177 178 180 165 154 162 158 147 130 115 115 126 133 122 113 110 96 88 88 84 90 100 92 93 121 113 113 115
304 277 274 255 208 205 215 202 193 184 182 193 193 179 170 167 176 168 160 162 151 135 129 124 121 107 100 115 116 121 112 109 112 107 93 86 88 89 86 91 94 97 121
304 309 287 272 254 214 202 196 182 163 192 199 193 184 168 163 166 148 147 155 149 129 123 115 112 103 100 112 105 105 115 114 111 110 110 95 78 77 76 56 52 58 84
279 277 252 260 247 236 221 205 178 177 182 188 187 195 178 167 158 145 147 139 140 132 125 117 115 111 98 93 92 85 90 89 90 87 95 98 95 87 96 83 58 36 17
263 265 251 246 253 220 213 190 189 183 182 192 193 187 179 165 158 156 149 143 136 129 121 124 121 116 107 109 108 106 103 109 98 105 105 109 108 99 85 105 142 279 200
259 282 284 281 259 255 184 188 191 194 197 194 196 181 178 171 164 156 150 138 140 128 126 118 120 124 123 120 112 112 115 109 108 87 87 103 123 113 144 142 115 313 219
280 283 282 259 261 250 177 202 193 207 217 195 177 172 174 165 148 137 143 132 130 122 120 117 117 115 118 120 120 120 117 135 126 121 109 130 160 130 99 89 113 205 342
277 275 270 271 264 215 189 205 200 213 169 167 169 160 155 143 145 142 138 135 132 124 123 119 109 100 104 109 120 125 124 135 120 164 165 155 121 97 78 63 11 324 305
264 271 275 286 281 215 203 211 226 158 158 155 151 145 142 143 150 147 146 137 140 137 137 136 131 130 124 109 142 157 163 168 146 150 113 114 95 118 76 268 292 314 270
252 258 274 275 273 228 215 219 163 152 149 146 145 139 134 134 136 137 142 139 143 138 137 132 124 121 116 125 140 127 151 113 83 90 85 87 98 150 191 295 256 213 218
256 261 263 266 270 200 202 167 158 151 149 144 142 137 135 133 126 114 129 123 101 131 135 137 136 138 137 161 142 129 107 114 119 110 95 119 170 253 244 243 231 223 219
256 253 257 257 256 175 166 168 160 154 147 144 138 142 133 130 128 117 99 66 109 108 103 111 123 95 111 123 129 138 146 158 143 122 192 213 220 230 229 224 232 225 227